Location: Chefe Valiua
(16.5342°S, 37.2214°E)
Time: 18:10:00
(UTC+00:00)

Hubble Space Telescope - Visible Passes

Search period start: 13 June 2021 00:00
Search period end: 23 June 2021 00:00
Orbit: 535 x 539 km, 28.5° (Epoch: 12 June)

Date Brightness Start Highest point End Pass type
(mag) Time Alt. Az. Time Alt. Az. Time Alt. Az.
13 Jun 2.3 02:46:05 20° SSW 02:46:30 20° SSW 02:49:40 10° SE visible
14 Jun 2.6 02:35:59 18° S 02:35:59 18° S 02:38:39 10° SE visible
15 Jun 2.9 02:25:48 16° S 02:25:48 16° S 02:27:40 10° SE visible
16 Jun 3.1 02:15:34 14° SSE 02:15:34 14° SSE 02:16:44 10° SE visible
17 Jun 3.4 02:05:18 12° SSE 02:05:18 12° SSE 02:05:51 10° SE visible
18 Jun 3.6 01:55:00 10° SE 01:55:00 10° SE 01:55:03 10° SE visible
18 Jun 2.5 03:31:08 10° SW 03:34:27 23° SSE 03:37:47 10° ESE visible
19 Jun 2.3 03:20:05 10° SW 03:23:37 26° SSE 03:27:09 10° ESE visible
20 Jun 2.0 03:09:42 14° SW 03:12:45 31° SSE 03:16:30 10° E visible
21 Jun 1.7 02:59:24 19° SW 03:01:53 38° SSE 03:05:47 10° E visible
22 Jun 1.3 02:49:07 28° SW 02:50:59 49° SSE 02:55:00 10° E visible
